Voltar ao catálogo

NUSAT-33

ALBANIA-2

AtivoCiênciaSSO
NORAD 55047·PAYLOAD·🇦🇷 Argentina

Lançado Jan 3, 2023 de Cape Canaveral Space Force Station

Loading…

Próximas Passagens (próximas 24 horas)

TLE

AtualizadoSource: Space-Track

Época: Sep 14, 2026, 21:32 UTC

1 55047U 23001AQ  26257.89771613  .00008825  00000-0  31393-3 0  9996
2 55047  97.2974 317.0958 0007991  89.7183 270.4973 15.29176138206010

Acompanhe NUSAT-33 em tempo real com AllMySat

Download on the App Store